This demonstration page uses our WeatherBlox Daily Observations layout. Learn more.

41.55636, -103.73856

Hourly Observations for October 22, 2019

Temp ( °F °C ) Dew Point ( °F °C ) Humidity (%) Winds ( mph kmh ) Pressure ( in mb ) Visibility ( mi km ) Precip ( " mm )
12:58 am 00:58 Clear 38 3.4 23 -5.2 54 54 NW 7 11 30.11 1020 10 16.0934 0 0
1:58 am 01:58 Clear 36 2.3 24 -4.6 61 61 WNW 9 15 30.15 1021 10 16.0934 0 0
2:58 am 02:58 Mostly Clear 29 -1.4 23 -5 77 77 SW 5 7 30.17 1022 10 16.0934 0 0
3:58 am 03:58 Mostly Clear 28 -2.1 24 -4.5 84 84 W 8 13 30.19 1023 10 16.0934 0 0
4:58 am 04:58 Mostly Clear 29 -1.8 25 -4.1 84 84 W 12 19 30.19 1022 10 16.0934 0 0
5:58 am 05:58 Clear 30 -0.9 26 -3.4 83 83 WNW 12 19 30.18 1022 10 16.0934 0 0
6:58 am 06:58 Mostly Cloudy 33 0.6 28 -2.3 81 81 WNW 12 19 30.17 1022 10 16.0934 0 0
7:58 am 07:58 Clear 32 0 26 -3.6 77 77 NW 12 19 30.15 1021 10 16.0934 0 0
8:58 am 08:58 Clear 31 -0.5 26 -3.3 82 82 WNW 10 17 30.17 1022 10 16.0934 0 0
9:58 am 09:58 Clear 29 -1.6 25 -3.8 85 85 W 6 9 30.16 1021 10 16.0934 0 0
10:58 am 10:58 Clear 28 -2.1 24 -4.4 84 84 WNW 3 6 30.16 1021 10 16.0934 0 0
11:58 am 11:58 Clear 29 -1.8 23 -5.2 78 78 WSW 6 9 30.17 1022 10 16.0934 0 0
12:58 pm 12:58 Clear 28 -2.5 22 -5.6 80 80 WSW 6 9 30.18 1022 10 16.0934 0 0
1:58 pm 13:58 Sunny 28 -2.2 23 -4.9 82 82 W 6 9 30.21 1023 10 16.0934 0 0
2:58 pm 14:58 Sunny 37 2.7 27 -2.6 68 68 NW 9 15 30.2 1023 10 16.0934 0 0
3:58 pm 15:58 Mostly Cloudy 42 5.5 28 -2.5 57 57 NW 16 26 30.19 1022 10 16.0934 0 0
4:58 pm 16:58 Sunny 49 9.2 27 -2.7 43 43 NW 16 26 30.13 1020 10 16.0934 0 0
5:58 pm 17:58 Sunny 53 11.9 25 -3.7 34 34 NW 17 28 30.06 1018 10 16.0934 0 0
6:58 pm 18:58 Mostly Sunny 55 12.9 25 -3.7 32 32 NW 26 43 30.01 1016 10 16.0934 0 0
7:58 pm 19:58 Mostly Cloudy 59 14.8 28 -2.5 30 30 WNW 25 41 29.97 1015 10 16.0934 0 0
9:58 pm 21:58 Cloudy 57 13.8 29 -1.5 35 35 WNW 21 33 29.95 1014 10 16.0934 0 0
10:58 pm 22:58 Mostly Cloudy 56 13.2 31 -0.5 39 39 WNW 20 31 29.96 1015 10 16.0934 0 0
11:58 pm 23:58 Windy with Rain Showers Likely 53 11.4 34 1.1 49 49 WNW 23 37 29.94 1014 10 16.0934 0 0

Powered by AerisWeather